Simultaneous Nadir Overpasses (SNOs) Predictions

Prediction of SNOs between NOAA-20 and AQUA Satellite Orbit:

Table of predicted SNOs for the next 14.0 days since TLE Epoch: 2/16/2018
Index Date (NOAA-20) Time (NOAA-20) Lat,Lon (NOAA-20) SZA (NOAA-20 ) Date (AQUA) Time (AQUA) Lat,Lon (AQUA) SZA (AQUA ) Distance(km) Time Diff (sec)
1 02/19/2018 06:46:24 -77.17, 141.63 72.50 02/19/2018 06:46:30 -77.16, 141.57 72.49 1.70 6
2 02/19/2018 07:36:54 77.77, -48.31 106.70 02/19/2018 07:35:42 77.78, -48.28 106.75 0.90 72
3 02/21/2018 22:12:45 76.65, 88.00 107.22 02/21/2018 22:13:44 76.64, 87.90 107.19 2.62 59
4 02/21/2018 23:03:15 -77.34,-101.87 73.68 02/21/2018 23:02:57 -77.34,-101.88 73.66 0.35 18
5 02/24/2018 14:29:32 76.96,-155.03 105.85 02/24/2018 14:30:07 76.95,-155.12 105.84 2.21 35
6 02/24/2018 15:20:03 -77.59, 15.03 74.99 02/24/2018 15:19:21 -77.59, 15.04 74.95 0.32 42
7 02/27/2018 06:46:20 77.25, -38.01 104.47 02/27/2018 06:46:31 77.25, -38.11 104.48 2.52 11
8 02/27/2018 07:36:53 -77.79, 131.78 76.26 02/27/2018 07:35:47 -77.79, 131.78 76.21 0.19 66
9 03/01/2018 22:12:50 -76.41, -92.91 75.47 03/01/2018 22:13:54 -76.41, -92.88 75.54 0.88 64




NCC Satellite Simultaneous Nadir Overpasses (SNOs) Prediction Service
